Ballenas Island, British Columbia

2:08 PM PDT on October 19, 2017 (GMT -0700)
Ballenas Island

Weather History for CWGB - August, 2013

Change the Weather History Date:

Thursday, August 22, 2013

  Actual Average Record
Temperature  
Mean Temperature 67 °F -  
Max Temperature 72 °F - - ()
Min Temperature 62 °F - - ()
Cooling Degree Days 2    
Growing Degree Days 17 (Base 50)    
Moisture  
Dew Point 57 °F    
Average Humidity 71    
Maximum Humidity 79    
Minimum Humidity 58    
Precipitation  
Precipitation 0.00 in - - ()
Sea Level Pressure  
Sea Level Pressure 29.86 in    
Wind  
Wind Speed 8 mph ()    
Max Wind Speed 14 mph    
Max Gust Speed -    
T = Trace of Precipitation, MM = Missing Value Source: Averaged Metar Reports

Daily Weather History Graph

Daily Weather History Graph

Search for Another Location

Airport or City:

Trip Planner

Search our weather history database for the weather conditions in past years. The results will help you decide how hot, cold, wet, or windy it might be!

Date:

Astronomy

Aug. 22, 2013 Rise Set
Actual Time 6:18 AM PDT 8:19 PM PDT
Civil Twilight 5:44 AM PDT 8:53 PM PDT
Nautical Twilight 5:01 AM PDT 9:35 PM PDT
Astronomical Twilight 4:13 AM PDT 10:22 PM PDT
Moon 8:47 PM PDT (8/22) 8:29 AM PDT (8/22)
Length of Visible Light 15h 08m
Length of Day
14h 00m
Waning Gibbous, 96% of the Moon is Illuminated
Aug 22
Waning Gibbous
Aug 28
Last Quarter
Sep 5
New
Sep 12
First Quarter
Sep 19
Full

Hourly Weather History & Observations

Time (PDT) Temp. Dew Point Humidity Pressure Visibility Wind Dir Wind Speed Gust Speed Precip Events Conditions
12:00 AM 64.9 °F 56.3 °F 74% 29.94 in - WSW 8.1 mph - N/A   Unknown
1:00 AM 64.6 °F 56.3 °F 74% 29.94 in - WSW 9.2 mph - N/A   Unknown
2:00 AM 64.6 °F 54.3 °F 69% 29.93 in - WSW 11.5 mph - N/A   Unknown
3:00 AM 65.5 °F 54.1 °F 67% 29.93 in - WSW 13.8 mph - N/A   Unknown
4:00 AM 64.0 °F 54.0 °F 70% 29.92 in - WSW 11.5 mph - N/A   Unknown
5:00 AM 62.4 °F 52.5 °F 70% 29.92 in - WSW 12.7 mph - N/A   Unknown
6:00 AM 62.8 °F 53.6 °F 72% 29.93 in - WSW 11.5 mph - N/A   Unknown
7:00 AM 62.6 °F 54.7 °F 75% 29.93 in - WSW 10.4 mph - N/A   Unknown
8:00 AM 63.1 °F 53.6 °F 71% 29.93 in - SW 8.1 mph - N/A   Unknown
9:00 AM 65.3 °F 57.7 °F 76% 29.92 in - West 11.5 mph - N/A   Unknown
10:00 AM 65.1 °F 57.7 °F 77% 29.91 in - West 11.5 mph - N/A   Unknown
11:00 AM 65 °F 58 °F 71% 29.90 in - West 13.8 mph - -  
11:00 AM 64.8 °F 57.7 °F 78% 29.90 in - West 13.8 mph - N/A   Unknown
12:00 PM 65.1 °F 58.6 °F 79% 29.88 in - West 13.8 mph - N/A   Unknown
1:00 PM 66.9 °F 59.9 °F 78% 29.86 in - West 11.5 mph - N/A   Unknown
2:00 PM 67.8 °F 59.7 °F 75% 29.85 in - West 6.9 mph - N/A   Unknown
3:00 PM 69.1 °F 59.0 °F 70% 29.83 in - West 8.1 mph - N/A   Unknown
4:00 PM 72.0 °F 61.7 °F 70% 29.81 in - WSW 8.1 mph - N/A   Unknown
5:00 PM 70 °F 60 °F 63% 29.79 in - WSW 4.6 mph - -  
5:00 PM 70.2 °F 60.1 °F 70% 29.79 in - WSW 4.6 mph - N/A   Unknown
6:00 PM 71.2 °F 62.2 °F 73% 29.77 in - WSW 3.5 mph - N/A   Unknown
7:00 PM 70.0 °F 58.1 °F 66% 29.75 in - West 4.6 mph - N/A   Unknown
8:00 PM 70.9 °F 56.3 °F 60% 29.75 in - West 4.6 mph - N/A   Unknown
9:00 PM 70.5 °F 54.9 °F 58% 29.76 in - WSW 3.5 mph - N/A   Unknown
10:00 PM 67.6 °F 58.8 °F 73% 29.76 in - ESE 4.6 mph - N/A   Unknown
11:00 PM 68 °F 56 °F 58% 29.76 in - ESE 4.6 mph - -  
11:00 PM 67.8 °F 56.5 °F 67% 29.76 in - ESE 4.6 mph - N/A   Unknown